This demonstration page uses our WeatherBlox Daily Observations layout. Learn more.

41.55636, -103.73856

Hourly Observations for May 15, 2018

Temp ( °F °C ) Dew Point ( °F °C ) Humidity (%) Winds ( mph kmh ) Pressure ( in mb ) Visibility ( mi km ) Precip ( " mm )
12:53 am 00:53 Clear 44 6.7 44 6.7 100 100 NW 3 6 30.06 1018 10 16.09344 0 0
1:53 am 01:53 Clear 44 6.7 44 6.7 100 100 Calm 30.06 1018 8 12.874752 0 0
2:53 am 02:53 Clear 43 6.1 43 6.1 100 100 N 5 7 30.06 1018 8 12.874752 0 0
3:53 am 03:53 Clear 42 5.6 42 5.6 100 100 NNW 7 11 30.06 1018 10 16.09344 0 0
4:53 am 04:53 Clear 42 5.6 42 5.6 100 100 NW 7 11 30.06 1018 8 12.874752 0 0
5:53 am 05:53 Sunny with Mist and Fog 42 5.6 42 5.6 100 100 W 7 11 30.09 1019 6 9.656064 0 0
6:53 am 06:53 Sunny 46 7.8 45 7.2 96 96 WNW 6 9 30.09 1019 10 16.09344 0 0
7:53 am 07:53 Sunny 50 10 49 9.4 96 96 NW 9 15 30.09 1019 10 16.09344 0 0
8:53 am 08:53 Sunny 55 12.8 50 10 83 83 Calm 30.09 1019 10 16.09344 0 0
9:53 am 09:53 Sunny 60 15.6 51 10.6 72 72 N 5 7 30.06 1018 10 16.09344 0 0
10:53 am 10:53 Sunny 63 17.2 50 10 63 63 ESE 7 11 30.06 1018 10 16.09344 0 0
11:53 am 11:53 Sunny 67 19.4 50 10 55 55 E 6 9 30.03 1017 10 16.09344 0 0
12:53 pm 12:53 Sunny 69 20.6 51 10.6 53 53 SE 8 13 30 1016 10 16.09344 0 0
1:53 pm 13:53 Sunny 70 21.1 52 11.1 53 53 SE 8 13 29.97 1015 10 16.09344 0 0
2:53 pm 14:53 Mostly Sunny 73 22.8 52 11.1 48 48 ESE 12 19 29.97 1015 10 16.09344 0 0
3:53 pm 15:53 Mostly Sunny 73 22.8 51 10.6 46 46 ESE 5 7 29.94 1014 10 16.09344 0 0
4:53 pm 16:53 Sunny 74 23.3 51 10.6 45 45 undefined N/A 29.94 1014 10 16.09344 0 0
5:53 pm 17:53 Sunny 72 22.2 52 11.1 50 50 ESE 12 19 29.94 1014 10 16.09344 0 0
6:53 pm 18:53 Sunny 72 22.2 51 10.6 48 48 ESE 10 17 29.91 1013 10 16.09344 0 0
7:53 pm 19:53 Sunny 66 18.9 53 11.7 63 63 ESE 8 13 29.91 1013 10 16.09344 0 0
8:53 pm 20:53 Clear 60 15.6 52 11.1 75 75 E 7 11 29.94 1014 10 16.09344 0 0
9:53 pm 21:53 Clear 58 14.4 51 10.6 78 78 E 5 7 29.94 1014 10 16.09344 0 0
10:53 pm 22:53 Clear 55 12.8 51 10.6 87 87 E 7 11 29.94 1014 10 16.09344 0 0
11:53 pm 23:53 Clear 54 12.2 52 11.1 93 93 E 7 11 29.94 1014 10 16.09344 0 0

Powered by AerisWeather